EXS75HB EGPF-LTAI

Flight info

Callsign EXS75HB
Flight time 4h 20m
Altitude 39000
Route NORBO Y96 HAVEN DCT ERKIT N110 DOLAS DCT NAVPI DCT TIVUN DCT ESAMA DCT OSBIT DCT BARSU DCT DEXIT DCT STEIN DCT OLATI DCT BABIT DCT KOTUS DCT OBAGI DCT NISVA DCT VIT DCT RODIP UN131 PIBOM DCT BELGI UN131 KULAR UT39 NESIL
Aircraft A332/H-SDE3GHIJ2J3J5M1RVWXY/LB2D1

Departure

Time 2026-05-04 15:20
Airport Glasgow Airport (EGPF)

Arrival

Time 2026-05-04 19:40
Airport Antalya International Airport (LTAI)
Time Latitude Longitude Altitude Speed Heading
2026-05-04 14:54 55.86512 -4.43834 35 ft 0 kts 62°
2026-05-04 15:10 55.86504 -4.43859 34 ft 2 kts 53°
2026-05-04 15:10 55.86497 -4.43881 36 ft 2 kts 43°
2026-05-04 15:10 55.86472 -4.43921 30 ft 2 kts 25°
2026-05-04 15:11 55.86457 -4.43926 31 ft 2 kts 12°
2026-05-04 15:11 55.86445 -4.43927 31 ft 0 kts 335°
2026-05-04 15:11 55.86442 -4.43924 31 ft 2 kts 334°
2026-05-04 15:12 55.86427 -4.43913 33 ft 2 kts 338°
2026-05-04 15:12 55.86413 -4.43902 32 ft 0 kts 332°
2026-05-04 15:13 55.86419 -4.43908 33 ft 2 kts 332°
2026-05-04 15:13 55.86435 -4.43923 31 ft 3 kts 332°
2026-05-04 15:14 55.86451 -4.43938 32 ft 3 kts 332°
2026-05-04 15:14 55.86486 -4.43970 34 ft 14 kts 332°
2026-05-04 15:14 55.86580 -4.44019 34 ft 13 kts 11°
2026-05-04 15:14 55.86647 -4.43919 34 ft 12 kts 45°
2026-05-04 15:15 55.86707 -4.43807 34 ft 12 kts 48°
2026-05-04 15:15 55.86747 -4.43649 34 ft 20 kts 72°
2026-05-04 15:15 55.86785 -4.43412 34 ft 20 kts 72°
2026-05-04 15:16 55.86922 -4.42921 34 ft 20 kts 28°
2026-05-04 15:16 55.87043 -4.42824 34 ft 18 kts 20°
2026-05-04 15:16 55.87273 -4.42668 34 ft 17 kts 21°
2026-05-04 15:17 55.87380 -4.42591 34 ft 16 kts 27°
2026-05-04 15:17 55.87703 -4.42003 34 ft 40 kts 46°
2026-05-04 15:17 55.87850 -4.41859 34 ft 6 kts
2026-05-04 15:18 55.87927 -4.41905 35 ft 7 kts 306°
2026-05-04 15:18 55.87917 -4.41981 34 ft 5 kts 244°
2026-05-04 15:18 55.87907 -4.41998 33 ft 0 kts 227°
2026-05-04 15:19 55.87801 -4.42197 35 ft 56 kts 226°
2026-05-04 15:19 55.87366 -4.43018 35 ft 123 kts 226°
2026-05-04 15:19 55.85788 -4.45942 408 ft 192 kts 228°
2026-05-04 15:20 55.84795 -4.47771 781 ft 214 kts 229°
2026-05-04 15:20 55.83760 -4.49688 1593 ft 218 kts 229°
2026-05-04 15:20 55.82668 -4.51723 2021 ft 235 kts 230°
2026-05-04 15:20 55.81514 -4.53858 2388 ft 248 kts 229°
2026-05-04 15:21 55.80291 -4.56043 2935 ft 251 kts 227°
2026-05-04 15:21 55.79040 -4.58215 3508 ft 254 kts 227°
2026-05-04 15:21 55.76459 -4.62613 4644 ft 260 kts 226°
2026-05-04 15:22 55.75133 -4.64869 4928 ft 263 kts 227°
2026-05-04 15:22 55.73818 -4.67109 5011 ft 263 kts 226°
2026-05-04 15:22 55.71178 -4.71587 5035 ft 263 kts 226°
2026-05-04 15:23 55.69858 -4.73811 5360 ft 266 kts 226°
2026-05-04 15:23 55.68299 -4.75612 5854 ft 269 kts 203°
2026-05-04 15:23 55.66450 -4.76276 6007 ft 273 kts 186°
2026-05-04 15:23 55.64564 -4.76322 6021 ft 274 kts 181°
2026-05-04 15:24 55.60833 -4.75062 6012 ft 282 kts 148°
2026-05-04 15:24 55.58838 -4.69282 6785 ft 287 kts 97°
2026-05-04 15:25 55.58680 -4.65702 7277 ft 291 kts 91°
2026-05-04 15:25 55.58603 -4.62147 7757 ft 293 kts 92°
2026-05-04 15:25 55.58478 -4.58538 8301 ft 295 kts 94°
2026-05-04 15:26 55.58063 -4.51222 9342 ft 300 kts 96°
2026-05-04 15:26 55.57814 -4.47537 9869 ft 304 kts 97°
2026-05-04 15:26 55.57303 -4.40106 10840 ft 308 kts 97°
2026-05-04 15:27 55.57045 -4.36316 11325 ft 311 kts 97°
2026-05-04 15:27 55.56614 -4.29945 12103 ft 317 kts 97°
2026-05-04 15:28 55.56067 -4.21848 12401 ft 347 kts 97°
2026-05-04 15:28 55.55676 -4.16076 12590 ft 365 kts 97°
2026-05-04 15:28 55.55157 -4.08488 13030 ft 379 kts 97°
2026-05-04 15:29 55.54836 -4.03839 13482 ft 381 kts 97°
2026-05-04 15:30 55.53519 -3.84956 15114 ft 391 kts 97°
2026-05-04 15:30 55.52492 -3.70530 16315 ft 398 kts 97°
2026-05-04 15:31 55.51792 -3.60810 17115 ft 403 kts 97°
2026-05-04 15:31 55.51431 -3.55841 17523 ft 406 kts 97°
2026-05-04 15:32 55.50333 -3.40910 18692 ft 412 kts 97°
2026-05-04 15:32 55.49445 -3.30892 19418 ft 416 kts 101°
2026-05-04 15:33 55.48369 -3.20813 20190 ft 420 kts 100°
2026-05-04 15:34 55.46736 -3.05565 21322 ft 425 kts 103°
2026-05-04 15:34 55.45730 -3.00665 21704 ft 426 kts 118°
2026-05-04 15:34 55.41897 -2.92767 22448 ft 427 kts 140°
2026-05-04 15:35 55.37405 -2.85855 23182 ft 432 kts 140°
2026-05-04 15:35 55.35154 -2.82335 23584 ft 433 kts 139°
2026-05-04 15:35 55.32895 -2.78783 23882 ft 436 kts 139°
2026-05-04 15:36 55.28347 -2.71617 24514 ft 441 kts 139°
2026-05-04 15:36 55.26079 -2.68049 24816 ft 443 kts 139°
2026-05-04 15:36 55.23769 -2.64423 25163 ft 445 kts 139°
2026-05-04 15:37 55.21447 -2.60786 25425 ft 448 kts 139°
2026-05-04 15:37 55.19110 -2.57134 25714 ft 450 kts 139°
2026-05-04 15:37 55.16768 -2.53480 26041 ft 451 kts 138°
2026-05-04 15:37 55.14410 -2.49807 26327 ft 454 kts 138°
2026-05-04 15:38 55.12062 -2.46159 26619 ft 456 kts 138°
2026-05-04 15:38 55.09677 -2.42457 26904 ft 458 kts 138°
2026-05-04 15:38 55.07281 -2.38746 27218 ft 460 kts 138°
2026-05-04 15:38 55.04914 -2.35084 27497 ft 462 kts 138°
2026-05-04 15:39 55.02494 -2.31349 27820 ft 463 kts 138°
2026-05-04 15:39 55.00075 -2.27621 28117 ft 464 kts 138°
2026-05-04 15:39 54.95219 -2.20157 28665 ft 468 kts 138°
2026-05-04 15:40 54.92770 -2.16402 28906 ft 470 kts 138°
2026-05-04 15:40 54.90308 -2.12631 29193 ft 471 kts 138°
2026-05-04 15:40 54.87835 -2.08853 29466 ft 473 kts 138°
2026-05-04 15:40 54.85358 -2.05075 29732 ft 474 kts 138°
2026-05-04 15:41 54.82900 -2.01331 29995 ft 476 kts 138°
2026-05-04 15:41 54.80402 -1.97534 30268 ft 477 kts 138°
2026-05-04 15:41 54.77901 -1.93740 30528 ft 478 kts 138°
2026-05-04 15:41 54.75392 -1.89938 30797 ft 478 kts 138°
2026-05-04 15:42 54.72909 -1.86184 31041 ft 479 kts 138°
2026-05-04 15:42 54.70378 -1.82363 31259 ft 479 kts 138°
2026-05-04 15:42 54.67917 -1.78653 31465 ft 480 kts 138°
2026-05-04 15:42 54.65392 -1.74853 31652 ft 480 kts 138°
2026-05-04 15:43 54.62896 -1.71105 31825 ft 481 kts 138°
2026-05-04 15:43 54.60366 -1.67311 31962 ft 481 kts 138°
2026-05-04 15:43 54.57834 -1.63522 32123 ft 482 kts 138°
2026-05-04 15:43 54.55302 -1.59738 32225 ft 482 kts 138°
2026-05-04 15:44 54.52760 -1.55946 32323 ft 483 kts 138°
2026-05-04 15:44 54.50213 -1.52153 32439 ft 483 kts 138°
2026-05-04 15:44 54.47689 -1.48400 32521 ft 483 kts 138°
2026-05-04 15:44 54.45145 -1.44625 32768 ft 479 kts 138°
2026-05-04 15:45 54.42627 -1.40897 33282 ft 471 kts 138°
2026-05-04 15:45 54.40173 -1.37268 34036 ft 458 kts 138°
2026-05-04 15:45 54.37784 -1.33740 34754 ft 446 kts 138°
2026-05-04 15:45 54.35484 -1.30349 35459 ft 433 kts 138°
2026-05-04 15:46 54.33238 -1.27041 36213 ft 419 kts 139°
2026-05-04 15:46 54.31062 -1.23838 36909 ft 406 kts 139°
2026-05-04 15:46 54.28911 -1.20674 36880 ft 411 kts 139°
2026-05-04 15:46 54.26676 -1.17398 36188 ft 433 kts 139°
2026-05-04 15:47 54.24376 -1.14053 36408 ft 431 kts 139°
2026-05-04 15:47 54.22113 -1.10787 36680 ft 428 kts 139°
2026-05-04 15:47 54.19821 -1.07502 36888 ft 428 kts 140°
2026-05-04 15:47 54.17527 -1.04240 37065 ft 428 kts 140°
2026-05-04 15:48 54.15225 -1.00990 37147 ft 430 kts 140°
2026-05-04 15:48 54.12911 -0.97747 36916 ft 440 kts 140°
2026-05-04 15:48 54.08218 -0.90790 36867 ft 449 kts 137°
2026-05-04 15:49 54.03455 -0.83705 36936 ft 456 kts 140°
2026-05-04 15:49 53.98274 -0.77444 37016 ft 462 kts 145°
2026-05-04 15:50 53.92922 -0.71185 37086 ft 467 kts 145°
2026-05-04 15:50 53.87571 -0.64925 37152 ft 470 kts 145°
2026-05-04 15:51 53.82171 -0.58633 37270 ft 471 kts 145°
2026-05-04 15:51 53.76752 -0.52341 37420 ft 471 kts 145°
2026-05-04 15:52 53.71354 -0.46092 37535 ft 472 kts 146°
2026-05-04 15:52 53.65942 -0.39846 37670 ft 472 kts 146°
2026-05-04 15:53 53.60502 -0.33532 37806 ft 472 kts 143°
2026-05-04 15:53 53.55699 -0.25938 37915 ft 473 kts 130°
2026-05-04 15:54 53.51756 -0.17132 38023 ft 473 kts 127°
2026-05-04 15:54 53.47787 -0.08244 38120 ft 474 kts 128°
2026-05-04 15:55 53.43824 0.00525 38222 ft 474 kts 128°
2026-05-04 15:55 53.39826 0.09337 38363 ft 474 kts 128°
2026-05-04 15:56 53.35842 0.18092 38465 ft 473 kts 128°
2026-05-04 15:56 53.31834 0.26868 38568 ft 473 kts 128°
2026-05-04 15:57 53.27847 0.35573 38678 ft 473 kts 128°
2026-05-04 15:57 53.23830 0.44313 38771 ft 473 kts 128°
2026-05-04 15:58 53.19802 0.53043 38847 ft 473 kts 129°
2026-05-04 15:58 53.15771 0.61749 38923 ft 473 kts 129°
2026-05-04 15:59 53.11766 0.70371 38999 ft 473 kts 129°
2026-05-04 15:59 53.07726 0.79039 39043 ft 473 kts 129°
2026-05-04 16:00 53.03707 0.87632 39042 ft 474 kts 129°
2026-05-04 16:00 52.99659 0.96345 39038 ft 475 kts 126°
2026-05-04 16:01 52.96498 1.05927 39039 ft 478 kts 112°
2026-05-04 16:01 52.94209 1.16271 39039 ft 478 kts 111°
2026-05-04 16:02 52.92272 1.24887 39043 ft 479 kts 112°
2026-05-04 16:03 52.88736 1.40385 39045 ft 480 kts 112°
2026-05-04 16:03 52.86359 1.50730 39042 ft 480 kts 112°
2026-05-04 16:04 52.83988 1.61011 39042 ft 480 kts 112°
2026-05-04 16:04 52.80393 1.76508 39037 ft 481 kts 112°
2026-05-04 16:05 52.77982 1.86837 39035 ft 481 kts 112°
2026-05-04 16:06 52.74345 2.02328 39025 ft 481 kts 113°
2026-05-04 16:07 52.69475 2.22903 39013 ft 482 kts 113°
2026-05-04 16:08 52.64551 2.43503 39006 ft 482 kts 113°
2026-05-04 16:09 52.58372 2.69083 39011 ft 483 kts 114°
2026-05-04 16:10 52.53173 2.89461 39005 ft 482 kts 117°
2026-05-04 16:11 52.47449 3.09546 39008 ft 483 kts 117°
2026-05-04 16:12 52.38851 3.39445 39012 ft 484 kts 118°
2026-05-04 16:13 52.33060 3.59345 39004 ft 484 kts 118°
2026-05-04 16:14 52.27254 3.79124 38991 ft 483 kts 118°
2026-05-04 16:16 52.19935 4.03827 38981 ft 482 kts 119°
2026-05-04 16:17 52.12626 4.28241 38956 ft 482 kts 119°
2026-05-04 16:18 52.06832 4.47419 38966 ft 481 kts 119°
2026-05-04 16:19 51.99406 4.71780 38962 ft 481 kts 120°
2026-05-04 16:20 51.91885 4.96209 38959 ft 481 kts 120°
2026-05-04 16:22 51.84396 5.20287 38958 ft 481 kts 120°
2026-05-04 16:23 51.75329 5.49127 38963 ft 482 kts 121°
2026-05-04 16:25 51.66133 5.78036 38965 ft 482 kts 121°
2026-05-04 16:26 51.55586 6.10775 38964 ft 482 kts 121°
2026-05-04 16:28 51.47698 6.34980 38964 ft 482 kts 121°
2026-05-04 16:29 51.36877 6.67807 38981 ft 483 kts 122°
2026-05-04 16:31 51.28816 6.91986 38987 ft 485 kts 122°
2026-05-04 16:32 51.19127 7.20736 38983 ft 484 kts 122°
2026-05-04 16:33 51.13158 7.38287 38988 ft 484 kts 122°
2026-05-04 16:34 51.08302 7.52473 38991 ft 483 kts 122°
2026-05-04 16:35 50.98268 7.81544 38993 ft 484 kts 123°
2026-05-04 16:36 50.93356 7.95201 38995 ft 480 kts 129°
2026-05-04 16:37 50.89033 8.03436 38993 ft 473 kts 140°
2026-05-04 16:37 50.86569 8.07109 38990 ft 472 kts 141°
2026-05-04 16:38 50.77774 8.20480 38990 ft 473 kts 140°
2026-05-04 16:39 50.66429 8.37674 38990 ft 473 kts 140°
2026-05-04 16:40 50.56888 8.52032 38985 ft 474 kts 140°
2026-05-04 16:41 50.44960 8.69861 38978 ft 473 kts 140°
2026-05-04 16:43 50.33587 8.88509 38975 ft 480 kts 125°
2026-05-04 16:43 50.29270 9.02733 38973 ft 483 kts 117°
2026-05-04 16:45 50.20880 9.31523 38974 ft 483 kts 118°
2026-05-04 16:46 50.13887 9.55231 38976 ft 483 kts 118°
2026-05-04 16:47 50.08218 9.74279 38960 ft 483 kts 118°
2026-05-04 16:48 50.03246 9.93826 38954 ft 485 kts 114°
2026-05-04 16:49 49.98469 10.13414 38944 ft 485 kts 114°
2026-05-04 16:50 49.93630 10.33043 38943 ft 485 kts 114°
2026-05-04 16:51 49.89450 10.47230 38949 ft 482 kts 120°
2026-05-04 16:52 49.83344 10.65766 38951 ft 482 kts 120°
2026-05-04 16:53 49.78762 10.79612 38955 ft 482 kts 120°
2026-05-04 16:54 49.72604 10.98082 38947 ft 483 kts 120°
2026-05-04 16:55 49.63320 11.25677 38946 ft 484 kts 120°
2026-05-04 16:56 49.55504 11.48683 38946 ft 484 kts 120°
2026-05-04 16:57 49.50795 11.62438 38972 ft 485 kts 120°
2026-05-04 16:58 49.44475 11.80789 38953 ft 485 kts 120°
2026-05-04 17:00 49.34957 12.08175 38947 ft 485 kts 120°
2026-05-04 17:01 49.26950 12.30991 38934 ft 485 kts 120°
2026-05-04 17:02 49.20538 12.49118 38937 ft 486 kts 120°
2026-05-04 17:03 49.15684 12.62757 38932 ft 486 kts 120°
2026-05-04 17:03 49.11362 12.74842 38925 ft 486 kts 120°
2026-05-04 17:04 49.04850 12.92941 38927 ft 487 kts 120°
2026-05-04 17:05 48.98303 13.11012 38925 ft 487 kts 120°
2026-05-04 17:06 48.93372 13.24546 38924 ft 487 kts 120°
2026-05-04 17:07 48.88995 13.36496 38924 ft 487 kts 120°
2026-05-04 17:07 48.85126 13.47012 38925 ft 487 kts 120°
2026-05-04 17:08 48.80163 13.60447 38923 ft 487 kts 120°
2026-05-04 17:09 48.76839 13.69411 38923 ft 486 kts 120°
2026-05-04 17:09 48.73146 13.77986 38919 ft 485 kts 124°
2026-05-04 17:10 48.63817 13.99219 38922 ft 486 kts 124°
2026-05-04 17:11 48.60037 14.07755 38920 ft 486 kts 124°
2026-05-04 17:12 48.54395 14.20441 38912 ft 486 kts 125°
2026-05-04 17:13 48.44938 14.41572 38901 ft 486 kts 125°
2026-05-04 17:14 48.37358 14.58390 38906 ft 485 kts 125°
2026-05-04 17:15 48.31651 14.70983 38915 ft 486 kts 125°
2026-05-04 17:16 48.24020 14.87732 38910 ft 486 kts 125°
2026-05-04 17:17 48.16371 15.04417 38919 ft 486 kts 125°
2026-05-04 17:18 48.08691 15.21066 38927 ft 486 kts 125°
2026-05-04 17:19 48.00973 15.37695 38932 ft 487 kts 125°
2026-05-04 17:20 47.93210 15.54320 38945 ft 488 kts 125°
2026-05-04 17:20 47.87365 15.66771 38952 ft 488 kts 125°
2026-05-04 17:21 47.79563 15.83303 38961 ft 489 kts 125°
2026-05-04 17:22 47.75633 15.91591 38960 ft 489 kts 125°
2026-05-04 17:23 47.67779 16.08082 38963 ft 489 kts 125°
2026-05-04 17:24 47.61875 16.20413 38964 ft 490 kts 125°
2026-05-04 17:25 47.53952 16.36876 38966 ft 489 kts 125°
2026-05-04 17:26 47.46044 16.53213 38966 ft 489 kts 125°
2026-05-04 17:27 47.36060 16.73538 38967 ft 489 kts 125°
2026-05-04 17:28 47.27713 16.89310 38973 ft 487 kts 133°
2026-05-04 17:29 47.13921 17.11140 38985 ft 486 kts 134°
2026-05-04 17:31 47.02316 17.29157 38992 ft 485 kts 134°
2026-05-04 17:32 46.90691 17.47083 39003 ft 485 kts 134°
2026-05-04 17:33 46.81377 17.61359 39004 ft 485 kts 134°
2026-05-04 17:34 46.72076 17.75539 39006 ft 485 kts 134°
2026-05-04 17:35 46.60372 17.93274 39012 ft 485 kts 134°
2026-05-04 17:36 46.55713 18.00301 39023 ft 485 kts 134°
2026-05-04 17:36 46.51013 18.07371 39021 ft 485 kts 134°
2026-05-04 17:37 46.46316 18.14417 39025 ft 485 kts 134°
2026-05-04 17:37 46.41611 18.21458 39028 ft 485 kts 134°
2026-05-04 17:38 46.36924 18.28453 39030 ft 485 kts 134°
2026-05-04 17:38 46.32992 18.34307 39036 ft 485 kts 134°
2026-05-04 17:39 46.25937 18.44777 39039 ft 486 kts 134°
2026-05-04 17:39 46.21200 18.51785 39041 ft 486 kts 134°
2026-05-04 17:40 46.16484 18.58743 39039 ft 487 kts 134°
2026-05-04 17:40 46.11737 18.65729 39039 ft 487 kts 134°
2026-05-04 17:41 46.06977 18.72716 39037 ft 487 kts 134°
2026-05-04 17:41 46.02582 18.79150 39041 ft 487 kts 134°
2026-05-04 17:42 46.02503 18.79265 39041 ft 487 kts 134°
2026-05-04 17:42 46.01095 18.81324 39036 ft 487 kts 134°
2026-05-04 17:43 45.96353 18.88245 39047 ft 487 kts 134°
2026-05-04 17:43 45.91599 18.95232 39043 ft 487 kts 131°
2026-05-04 17:44 45.87230 19.02594 39049 ft 486 kts 129°
2026-05-04 17:44 45.82866 19.10042 39052 ft 486 kts 130°
2026-05-04 17:45 45.78447 19.17420 39055 ft 486 kts 130°
2026-05-04 17:45 45.74030 19.24735 39051 ft 486 kts 130°
2026-05-04 17:46 45.69613 19.32030 39050 ft 486 kts 130°
2026-05-04 17:46 45.65156 19.39374 39054 ft 486 kts 130°
2026-05-04 17:47 45.60707 19.46686 39054 ft 486 kts 130°
2026-05-04 17:47 45.56286 19.53933 39054 ft 486 kts 130°
2026-05-04 17:48 45.51823 19.61229 39057 ft 486 kts 130°
2026-05-04 17:48 45.47389 19.68460 39058 ft 486 kts 130°
2026-05-04 17:49 45.42925 19.75721 39064 ft 487 kts 130°
2026-05-04 17:49 45.38473 19.82944 39064 ft 487 kts 130°
2026-05-04 17:50 45.33994 19.90190 39065 ft 487 kts 130°
2026-05-04 17:50 45.29257 19.97038 39069 ft 488 kts 137°
2026-05-04 17:51 45.24183 20.03458 39069 ft 488 kts 137°
2026-05-04 17:51 45.19118 20.09917 39071 ft 489 kts 137°
2026-05-04 17:52 45.14073 20.16339 39073 ft 489 kts 137°
2026-05-04 17:52 45.08990 20.22788 39076 ft 490 kts 137°
2026-05-04 17:53 45.03931 20.29188 39075 ft 490 kts 137°
2026-05-04 17:53 44.98810 20.35651 39075 ft 490 kts 137°
2026-05-04 17:54 44.93710 20.42070 39074 ft 491 kts 137°
2026-05-04 17:54 44.88637 20.48441 39074 ft 491 kts 137°
2026-05-04 17:55 44.83515 20.54856 39074 ft 491 kts 137°
2026-05-04 17:55 44.78395 20.61253 39077 ft 491 kts 137°
2026-05-04 17:56 44.73298 20.67606 39080 ft 492 kts 137°
2026-05-04 17:56 44.68162 20.73990 39078 ft 491 kts 137°
2026-05-04 17:57 44.63060 20.80317 39079 ft 491 kts 137°
2026-05-04 17:57 44.57916 20.86680 39083 ft 490 kts 137°
2026-05-04 17:58 44.52818 20.92973 39082 ft 490 kts 137°
2026-05-04 17:58 44.47684 20.99293 39078 ft 490 kts 138°
2026-05-04 17:59 44.42556 21.05591 39078 ft 490 kts 138°
2026-05-04 18:00 44.34874 21.14996 39081 ft 490 kts 138°
2026-05-04 18:00 44.29736 21.21267 39086 ft 490 kts 138°
2026-05-04 18:01 44.24628 21.27488 39084 ft 490 kts 138°
2026-05-04 18:01 44.19469 21.33756 39091 ft 491 kts 138°
2026-05-04 18:02 44.11732 21.43125 39090 ft 492 kts 138°
2026-05-04 18:02 44.06583 21.49343 39091 ft 493 kts 138°
2026-05-04 18:03 44.01389 21.55600 39096 ft 494 kts 138°
2026-05-04 18:03 43.96188 21.61849 39083 ft 494 kts 138°
2026-05-04 18:04 43.90996 21.68075 39085 ft 494 kts 138°
2026-05-04 18:05 43.83164 21.77435 39086 ft 494 kts 138°
2026-05-04 18:05 43.77979 21.83614 39085 ft 494 kts 138°
2026-05-04 18:06 43.70135 21.92933 39092 ft 494 kts 138°
2026-05-04 18:06 43.64932 21.99097 39082 ft 494 kts 138°
2026-05-04 18:07 43.59737 22.05238 39081 ft 494 kts 138°
2026-05-04 18:07 43.54533 22.11388 39080 ft 494 kts 138°
2026-05-04 18:08 43.49351 22.17647 39089 ft 494 kts 137°
2026-05-04 18:08 43.44174 22.23908 39083 ft 494 kts 137°
2026-05-04 18:09 43.33805 22.36362 39091 ft 494 kts 137°
2026-05-04 18:10 43.28634 22.42544 39094 ft 494 kts 138°
2026-05-04 18:10 43.23422 22.48765 39097 ft 494 kts 138°
2026-05-04 18:11 43.18244 22.54931 39100 ft 495 kts 138°
2026-05-04 18:11 43.13027 22.61126 39102 ft 495 kts 138°
2026-05-04 18:12 43.07831 22.67283 39101 ft 495 kts 138°
2026-05-04 18:12 43.02604 22.73463 39106 ft 496 kts 138°
2026-05-04 18:13 42.97391 22.79613 39106 ft 496 kts 138°
2026-05-04 18:14 42.92392 22.85637 39103 ft 496 kts 137°
2026-05-04 18:14 42.88081 22.90917 39107 ft 496 kts 137°
2026-05-04 18:15 42.79830 23.00944 39110 ft 497 kts 137°
2026-05-04 18:16 42.77323 23.03976 39106 ft 497 kts 137°
2026-05-04 18:16 42.73009 23.09184 39102 ft 497 kts 137°
2026-05-04 18:17 42.65245 23.18535 39106 ft 497 kts 137°
2026-05-04 18:18 42.57446 23.27894 39105 ft 497 kts 137°
2026-05-04 18:18 42.52344 23.34173 39110 ft 497 kts 135°
2026-05-04 18:19 42.44773 23.43815 39116 ft 497 kts 136°
2026-05-04 18:19 42.39739 23.50155 39117 ft 497 kts 136°
2026-05-04 18:20 42.34661 23.56521 39125 ft 497 kts 136°
2026-05-04 18:20 42.29582 23.62874 39124 ft 497 kts 136°
2026-05-04 18:21 42.24491 23.69227 39124 ft 497 kts 136°
2026-05-04 18:21 42.19423 23.75538 39120 ft 497 kts 136°
2026-05-04 18:22 42.14327 23.81869 39123 ft 497 kts 136°
2026-05-04 18:22 42.09256 23.88154 39118 ft 496 kts 136°
2026-05-04 18:23 42.04154 23.94465 39120 ft 497 kts 136°
2026-05-04 18:23 41.99074 24.00735 39114 ft 497 kts 136°
2026-05-04 18:24 41.93955 24.07037 39110 ft 497 kts 136°
2026-05-04 18:24 41.88873 24.13281 39095 ft 497 kts 136°
2026-05-04 18:25 41.83749 24.19561 39110 ft 497 kts 136°
2026-05-04 18:25 41.78669 24.25772 39106 ft 497 kts 136°
2026-05-04 18:26 41.73542 24.32029 39095 ft 496 kts 136°
2026-05-04 18:26 41.68445 24.38232 39096 ft 496 kts 136°
2026-05-04 18:27 41.63319 24.44460 39099 ft 497 kts 136°
2026-05-04 18:27 41.58219 24.50641 39094 ft 497 kts 136°
2026-05-04 18:28 41.53079 24.56856 39095 ft 497 kts 136°
2026-05-04 18:28 41.47974 24.63016 39096 ft 497 kts 136°
2026-05-04 18:29 41.42833 24.69207 39095 ft 497 kts 136°
2026-05-04 18:29 41.37696 24.75335 39093 ft 497 kts 137°
2026-05-04 18:30 41.29907 24.84525 39086 ft 498 kts 137°
2026-05-04 18:31 41.24721 24.90641 39081 ft 498 kts 137°
2026-05-04 18:31 41.19557 24.96719 39070 ft 498 kts 137°
2026-05-04 18:32 41.14350 25.02836 39071 ft 498 kts 137°
2026-05-04 18:32 41.09131 25.08952 39054 ft 498 kts 137°
2026-05-04 18:33 41.03956 25.15003 39052 ft 498 kts 137°
2026-05-04 18:33 40.98742 25.21086 39049 ft 498 kts 137°
2026-05-04 18:34 40.93561 25.27118 39053 ft 498 kts 137°
2026-05-04 18:34 40.88538 25.33403 39059 ft 495 kts 131°
2026-05-04 18:35 40.83908 25.40107 39059 ft 496 kts 131°
2026-05-04 18:35 40.79225 25.46827 39057 ft 497 kts 131°
2026-05-04 18:36 40.74514 25.53556 39058 ft 497 kts 131°
2026-05-04 18:36 40.69819 25.60246 39059 ft 498 kts 131°
2026-05-04 18:37 40.65125 25.66921 39059 ft 498 kts 131°
2026-05-04 18:37 40.60413 25.73608 39055 ft 498 kts 131°
2026-05-04 18:38 40.55698 25.80282 39060 ft 498 kts 131°
2026-05-04 18:38 40.50974 25.86955 39062 ft 498 kts 131°
2026-05-04 18:39 40.46303 25.93736 39060 ft 498 kts 129°
2026-05-04 18:39 40.41772 26.00601 39063 ft 498 kts 129°
2026-05-04 18:40 40.37206 26.07452 39064 ft 499 kts 130°
2026-05-04 18:40 40.32630 26.14265 39067 ft 499 kts 130°
2026-05-04 18:41 40.28030 26.21094 39070 ft 499 kts 130°
2026-05-04 18:41 40.23445 26.27888 39073 ft 500 kts 130°
2026-05-04 18:42 40.18835 26.34703 39076 ft 500 kts 130°
2026-05-04 18:42 40.14198 26.41545 39077 ft 500 kts 130°
2026-05-04 18:43 40.09304 26.47984 39073 ft 501 kts 134°
2026-05-04 18:43 40.04348 26.54340 39073 ft 502 kts 134°
2026-05-04 18:44 39.99342 26.60765 39078 ft 502 kts 134°
2026-05-04 18:44 39.94367 26.67134 39081 ft 503 kts 134°
2026-05-04 18:45 39.89385 26.73498 39081 ft 503 kts 134°
2026-05-04 18:45 39.84362 26.79898 39077 ft 504 kts 134°
2026-05-04 18:46 39.79306 26.86327 39077 ft 504 kts 134°
2026-05-04 18:46 39.74338 26.92594 39075 ft 505 kts 135°
2026-05-04 18:47 39.69181 26.98896 39075 ft 505 kts 135°
2026-05-04 18:47 39.64042 27.05165 39075 ft 506 kts 135°
2026-05-04 18:48 39.59770 27.10386 39077 ft 506 kts 135°
2026-05-04 18:48 39.54630 27.16662 39076 ft 506 kts 135°
2026-05-04 18:49 39.49539 27.22999 39073 ft 506 kts 130°
2026-05-04 18:49 39.45057 27.30000 39069 ft 505 kts 128°
2026-05-04 18:50 39.40595 27.37012 39068 ft 505 kts 128°
2026-05-04 18:50 39.36126 27.43992 39061 ft 506 kts 128°
2026-05-04 18:51 39.31626 27.51002 39060 ft 506 kts 128°
2026-05-04 18:51 39.27117 27.58012 39055 ft 506 kts 128°
2026-05-04 18:52 39.22615 27.64998 39053 ft 507 kts 128°
2026-05-04 18:52 39.18095 27.71995 39050 ft 507 kts 128°
2026-05-04 18:53 39.13574 27.78978 39053 ft 507 kts 128°
2026-05-04 18:53 39.09037 27.85971 39049 ft 508 kts 128°
2026-05-04 18:54 39.04526 27.92908 39048 ft 508 kts 129°
2026-05-04 18:54 38.99932 27.99961 39050 ft 509 kts 129°
2026-05-04 18:55 38.95398 28.06905 39049 ft 508 kts 129°
2026-05-04 18:55 38.88568 28.17335 39051 ft 508 kts 129°
2026-05-04 18:56 38.83994 28.24301 39049 ft 508 kts 129°
2026-05-04 18:56 38.79435 28.31231 39045 ft 508 kts 129°
2026-05-04 18:57 38.74875 28.38145 39035 ft 507 kts 129°
2026-05-04 18:57 38.70318 28.45040 39037 ft 507 kts 129°
2026-05-04 18:58 38.65763 28.51918 39042 ft 508 kts 129°
2026-05-04 18:58 38.61160 28.58854 39044 ft 508 kts 129°
2026-05-04 18:59 38.56142 28.65149 39043 ft 509 kts 142°
2026-05-04 18:59 38.50324 28.70358 39041 ft 510 kts 145°
2026-05-04 19:00 38.44506 28.75548 39040 ft 511 kts 145°
2026-05-04 19:00 38.38663 28.80772 39041 ft 512 kts 145°
2026-05-04 19:01 38.32841 28.85966 39039 ft 513 kts 145°
2026-05-04 19:01 38.26979 28.91182 39036 ft 513 kts 145°
2026-05-04 19:02 38.21124 28.96381 39034 ft 513 kts 145°
2026-05-04 19:02 38.15258 29.01580 39042 ft 513 kts 145°
2026-05-04 19:03 38.09402 29.06758 39037 ft 513 kts 145°
2026-05-04 19:03 38.03539 29.11933 39031 ft 514 kts 145°
2026-05-04 19:04 37.97642 29.17127 39034 ft 514 kts 145°
2026-05-04 19:04 37.91775 29.22284 39033 ft 514 kts 146°
2026-05-04 19:05 37.85912 29.27428 39033 ft 514 kts 146°
2026-05-04 19:05 37.79997 29.32609 39036 ft 514 kts 146°
2026-05-04 19:06 37.74106 29.37761 39037 ft 515 kts 146°
2026-05-04 19:06 37.68222 29.42896 39038 ft 516 kts 146°
2026-05-04 19:07 37.62325 29.48033 39042 ft 515 kts 146°
2026-05-04 19:07 37.56426 29.53160 38998 ft 511 kts 146°
2026-05-04 19:08 37.53490 29.55711 38897 ft 503 kts 146°
2026-05-04 19:08 37.50653 29.58171 38792 ft 494 kts 146°
2026-05-04 19:08 37.47816 29.60629 38444 ft 490 kts 146°
2026-05-04 19:08 37.45035 29.63035 38058 ft 487 kts 146°
2026-05-04 19:09 37.42240 29.65450 37675 ft 483 kts 146°
2026-05-04 19:09 37.39482 29.67833 37292 ft 479 kts 146°
2026-05-04 19:09 37.36767 29.70176 36916 ft 476 kts 146°
2026-05-04 19:09 37.33965 29.72397 36511 ft 472 kts 153°
2026-05-04 19:10 37.31024 29.74154 36155 ft 467 kts 158°
2026-05-04 19:10 37.28039 29.75752 35779 ft 465 kts 158°
2026-05-04 19:10 37.25097 29.77346 35414 ft 462 kts 157°
2026-05-04 19:10 37.22139 29.78960 35046 ft 459 kts 157°
2026-05-04 19:11 37.19248 29.80632 34643 ft 457 kts 150°
2026-05-04 19:11 37.16684 29.82896 34287 ft 453 kts 136°
2026-05-04 19:11 37.14587 29.85822 33906 ft 447 kts 122°
2026-05-04 19:11 37.13113 29.89207 33489 ft 439 kts 107°
2026-05-04 19:12 37.12341 29.92833 33039 ft 430 kts 92°
2026-05-04 19:12 37.12383 30.00209 32198 ft 420 kts 83°
2026-05-04 19:12 37.12425 30.03885 31801 ft 419 kts 86°
2026-05-04 19:13 37.12314 30.07488 31429 ft 418 kts 89°
2026-05-04 19:13 37.12086 30.11140 30804 ft 422 kts 91°
2026-05-04 19:13 37.11796 30.14851 29952 ft 431 kts 91°
2026-05-04 19:13 37.11485 30.18591 28984 ft 440 kts 92°
2026-05-04 19:14 37.11175 30.22437 28069 ft 446 kts 90°
2026-05-04 19:14 37.11278 30.26162 27395 ft 440 kts 77°
2026-05-04 19:14 37.12019 30.29826 26472 ft 438 kts 65°
2026-05-04 19:14 37.13405 30.33242 25477 ft 439 kts 52°
2026-05-04 19:15 37.15361 30.36197 24510 ft 438 kts 40°
2026-05-04 19:15 37.17764 30.38511 23639 ft 436 kts 27°
2026-05-04 19:15 37.20480 30.40052 22917 ft 428 kts 15°
2026-05-04 19:15 37.23378 30.40772 22264 ft 420 kts
2026-05-04 19:16 37.26288 30.40711 21600 ft 413 kts 354°
2026-05-04 19:16 37.29114 30.40466 20916 ft 409 kts 356°
2026-05-04 19:16 37.31967 30.40411 20256 ft 405 kts 360°
2026-05-04 19:16 37.34747 30.40573 19613 ft 401 kts
2026-05-04 19:17 37.37537 30.40875 18982 ft 397 kts
2026-05-04 19:17 37.40269 30.41236 18327 ft 393 kts
2026-05-04 19:17 37.42981 30.41615 17584 ft 389 kts
2026-05-04 19:17 37.45667 30.41992 16807 ft 387 kts
2026-05-04 19:18 37.48312 30.42361 16063 ft 384 kts
2026-05-04 19:18 37.50969 30.42735 15263 ft 382 kts
2026-05-04 19:18 37.53526 30.43644 14510 ft 382 kts 21°
2026-05-04 19:18 37.55786 30.45412 13786 ft 383 kts 37°
2026-05-04 19:19 37.57562 30.47930 13000 ft 384 kts 54°
2026-05-04 19:19 37.58683 30.50970 12217 ft 387 kts 71°
2026-05-04 19:19 37.59064 30.54324 11510 ft 388 kts 88°
2026-05-04 19:19 37.58610 30.57650 11170 ft 380 kts 107°
2026-05-04 19:20 37.57387 30.60467 11027 ft 366 kts 127°
2026-05-04 19:20 37.55513 30.62519 10996 ft 349 kts 149°
2026-05-04 19:20 37.53293 30.63507 10993 ft 328 kts 173°
2026-05-04 19:20 37.51822 30.63531 10994 ft 313 kts 189°
2026-05-04 19:21 37.49282 30.62177 10996 ft 300 kts 224°
2026-05-04 19:21 37.48282 30.60948 10994 ft 302 kts 232°
2026-05-04 19:21 37.46483 30.58272 10992 ft 300 kts 235°
2026-05-04 19:21 37.45495 30.57035 11011 ft 304 kts 221°
2026-05-04 19:22 37.43634 30.55716 11000 ft 310 kts 206°
2026-05-04 19:22 37.41584 30.54755 10996 ft 313 kts 201°
2026-05-04 19:22 37.39527 30.53891 10991 ft 309 kts 198°
2026-05-04 19:22 37.37445 30.53360 11000 ft 310 kts 188°
2026-05-04 19:23 37.35290 30.53150 10994 ft 311 kts 186°
2026-05-04 19:23 37.33140 30.52917 10995 ft 310 kts 187°
2026-05-04 19:23 37.30961 30.52636 10994 ft 310 kts 188°
2026-05-04 19:23 37.28838 30.52341 10982 ft 311 kts 188°
2026-05-04 19:24 37.26687 30.52036 10994 ft 310 kts 188°
2026-05-04 19:24 37.24538 30.51733 10991 ft 309 kts 188°
2026-05-04 19:24 37.22393 30.51431 10993 ft 308 kts 188°
2026-05-04 19:24 37.20285 30.51137 10990 ft 308 kts 188°
2026-05-04 19:25 37.18130 30.50835 10991 ft 309 kts 188°
2026-05-04 19:25 37.16007 30.50542 10977 ft 307 kts 188°
2026-05-04 19:25 37.13876 30.50253 10993 ft 306 kts 188°
2026-05-04 19:25 37.11749 30.49988 10970 ft 308 kts 183°
2026-05-04 19:26 37.09623 30.50428 10977 ft 311 kts 158°
2026-05-04 19:26 37.07819 30.51829 10989 ft 309 kts 135°
2026-05-04 19:26 37.06590 30.54003 10976 ft 305 kts 110°
2026-05-04 19:26 37.05980 30.56535 10978 ft 302 kts 99°
2026-05-04 19:27 37.05524 30.59093 10973 ft 303 kts 100°
2026-05-04 19:27 37.04969 30.61662 10972 ft 304 kts 104°
2026-05-04 19:27 37.04298 30.64162 10967 ft 305 kts 107°
2026-05-04 19:27 37.03318 30.66534 10975 ft 307 kts 127°
2026-05-04 19:28 37.01722 30.68278 10963 ft 308 kts 151°
2026-05-04 19:28 36.99721 30.69119 10968 ft 307 kts 175°
2026-05-04 19:28 36.97586 30.68971 10966 ft 305 kts 193°
2026-05-04 19:28 36.95522 30.68412 10965 ft 305 kts 195°
2026-05-04 19:29 36.93458 30.67899 10966 ft 305 kts 192°
2026-05-04 19:29 36.91351 30.67532 10964 ft 306 kts 188°
2026-05-04 19:29 36.89239 30.67283 10849 ft 304 kts 186°
2026-05-04 19:29 36.87123 30.67097 10537 ft 303 kts 185°
2026-05-04 19:30 36.85020 30.66937 10099 ft 302 kts 185°
2026-05-04 19:30 36.82925 30.66780 9657 ft 298 kts 185°
2026-05-04 19:30 36.80837 30.66618 9049 ft 299 kts 185°
2026-05-04 19:30 36.78781 30.66456 8522 ft 299 kts 185°
2026-05-04 19:31 36.76695 30.66289 7976 ft 298 kts 185°
2026-05-04 19:31 36.74618 30.66119 7440 ft 298 kts 185°
2026-05-04 19:31 36.72586 30.65951 6927 ft 296 kts 185°
2026-05-04 19:31 36.70517 30.65782 6394 ft 296 kts 185°
2026-05-04 19:32 36.68457 30.65613 5883 ft 294 kts 186°
2026-05-04 19:32 36.66452 30.65458 5580 ft 285 kts 184°
2026-05-04 19:32 36.64559 30.65857 5491 ft 269 kts 156°
2026-05-04 19:32 36.63107 30.67127 5468 ft 246 kts 127°
2026-05-04 19:33 36.62241 30.68969 4871 ft 251 kts 101°
2026-05-04 19:33 36.61892 30.71055 4528 ft 244 kts 92°
2026-05-04 19:33 36.61607 30.73075 4460 ft 230 kts 93°
2026-05-04 19:33 36.61588 30.73204 4438 ft 231 kts 94°
2026-05-04 19:34 36.61333 30.74879 4521 ft 244 kts 95°
2026-05-04 19:34 36.60998 30.76922 5356 ft 234 kts 93°
2026-05-04 19:34 36.61245 30.78878 5761 ft 230 kts 51°
2026-05-04 19:34 36.62435 30.80178 5939 ft 232 kts 22°
2026-05-04 19:35 36.64014 30.80556 5321 ft 240 kts 359°
2026-05-04 19:35 36.65770 30.80263 3973 ft 270 kts 341°
2026-05-04 19:35 36.67529 30.79429 3511 ft 262 kts 339°
2026-05-04 19:35 36.69169 30.78855 3790 ft 225 kts 347°
2026-05-04 19:36 36.70659 30.78599 3703 ft 207 kts 354°
2026-05-04 19:36 36.72029 30.78575 3463 ft 194 kts 359°
2026-05-04 19:36 36.73382 30.78671 2981 ft 195 kts
2026-05-04 19:36 36.74741 30.78781 2539 ft 193 kts
2026-05-04 19:37 36.76058 30.78938 2104 ft 192 kts
2026-05-04 19:37 36.77391 30.79129 1669 ft 190 kts
2026-05-04 19:37 36.78713 30.79318 1521 ft 194 kts
2026-05-04 19:37 36.80049 30.79515 1503 ft 196 kts
2026-05-04 19:38 36.81420 30.79711 1498 ft 198 kts
2026-05-04 19:38 36.82785 30.79915 1308 ft 198 kts
2026-05-04 19:38 36.84131 30.80119 1000 ft 193 kts
2026-05-04 19:39 36.84719 30.80198 872 ft 196 kts
2026-05-04 19:39 36.86062 30.80400 593 ft 198 kts
2026-05-04 19:39 36.87492 30.80597 332 ft 209 kts
2026-05-04 19:40 36.88884 30.80830 180 ft 177 kts
2026-05-04 19:40 36.89737 30.80944 182 ft 63 kts
2026-05-04 19:40 36.89924 30.80921 189 ft 18 kts 329°
2026-05-04 19:40 36.90030 30.80863 199 ft 16 kts 336°
2026-05-04 19:41 36.90053 30.80851 199 ft 0 kts 336°
2026-05-04 19:44 36.90090 30.80830 200 ft 13 kts 335°
2026-05-04 19:44 36.90088 30.80764 202 ft 8 kts 222°
2026-05-04 19:44 36.89949 30.80740 199 ft 25 kts 186°
2026-05-04 19:44 36.89775 30.80717 184 ft 25 kts 186°
2026-05-04 19:45 36.89619 30.80698 182 ft 0 kts 186°
2026-05-04 19:45 36.89616 30.80697 182 ft 4 kts 186°
2026-05-04 19:45 36.89566 30.80650 182 ft 0 kts 241°
2026-05-04 19:45 36.89564 30.80622 182 ft 13 kts 268°
2026-05-04 19:46 36.89640 30.80554 183 ft 12 kts 17°
2026-05-04 19:46 36.89704 30.80579 183 ft 9 kts
2026-05-04 19:46 36.89763 30.80579 184 ft 7 kts 347°
2026-05-04 19:46 36.89785 30.80525 196 ft 10 kts 272°
2026-05-04 19:47 36.89786 30.80505 189 ft 0 kts 274°